Location: Ferchesar
(52.6477°N, 12.4298°E)
Time: 23:01:12
(UTC+01:00)

Tiros 1 despin weight - Pass Details

Date: 05 December 2021
Orbit: 592 x 641 km, 48.2° (Epoch: 23 January)

Event Time Altitude Azimuth Distance (km) Brightness Sun altitude
Rises 18:21:11 0° 274° (W) 2,826 ? -20.7°
Reaches altitude 10° 18:24:03 10° 256° (WSW) 1,923 ? -21.1°
Maximum altitude 18:27:00 18° 213° (SSW) 1,480 ? -21.5°
Drops below altitude 10° 18:29:58 10° 171° (S) 1,925 ? -22.0°
Enters shadow 18:30:58 - 162° (SSE) 2,207 ? -22.1°
